Regional Weather Roundup
Issued by NWS

Home | Current Version | Previous Version | Graphics & Text | Print | Product List | Glossary On
Versions: 1 2 3 4 5 6 7 8 9 10 11 12 13 14 15 16 17 18 19 20 21 22 23 24 25 26 27
000
ASUS45 KSLC 041310
RWRUT

UTAH REGIONAL WEATHER ROUNDUP
NATIONAL WEATHER SERVICE SALT LAKE CITY UT
600 AM MST SUN DEC 04 2016

UTZ001>011-023>025-041400-

NORTHERN UTAH

CITY           SKY/WX    TMP DP  RH WIND       PRES   REMARKS
BRIGHAM CITY     N/A     32  20  60 CALM      30.19S
HILL AFB       CLEAR     24  16  73 E7        30.16F WCI  15
LOGAN          MOCLDY   N/A N/A N/A NE3       30.16F
OGDEN          CLEAR     23  17  78 S8        30.17F WCI  14
SALT LAKE CITY PTCLDY    28  19  69 SE9       30.18F WCI  19
TOOELE VALLEY  CLEAR     27  19  74 S8        30.18F WCI  18
WENDOVER       CLEAR     21  14  73 CALM      30.17S
HEBER CITY     PTCLDY    10   9  92 CALM      30.19S
WEST JORDAN    CLEAR     27  22  80 S14       30.18F WCI  16

$$

UTZ011>015-024>027-041400-

CENTRAL/NORTHEAST UTAH

CITY           SKY/WX    TMP DP  RH WIND       PRES   REMARKS
PROVO AIRPORT  PTCLDY    20  15  81 CALM      30.23S
MOAB/CANYONLAN CLEAR     24  15  68 S3        30.20S
DELTA          MOCLDY    14  12  92 CALM      30.21S
PRICE          CLEAR     18  12  77 N3        30.15F
RICHFIELD      CLEAR     14  12  92 CALM      30.24F
ROOSEVELT      CLOUDY    14  10  85 W3        30.20S
VERNAL         CLOUDY    14   8  77 W5        30.18S WCI   6

$$

UTZ013>016-019>022-027-041400-

SOUTHERN UTAH

CITY           SKY/WX    TMP DP  RH WIND       PRES   REMARKS
BRYCE CANYON   NOT AVBL
CEDAR CITY     PTCLDY    19  11  70 SE5       30.18F WCI  12
MILFORD        PTCLDY    14   9  80 S8        30.20F WCI   3
ST GEORGE      MOSUNNY   30  14  51 S3        30.23R
HANKSVILLE     PTCLDY    16  12  86 N5        30.24S WCI   9
KANAB          CLEAR     18  14  86 CALM      30.23R
BLANDING       CLEAR     23  12  63 E3        30.23R

$$

REGIONAL REPORTS     COLORADO/ARIZONA

CITY           SKY/WX    TMP DP  RH WIND       PRES   REMARKS
CRAIG, CO      CLOUDY     5   0  79 CALM      30.17S
GRAND JUNCTION CLOUDY    19  15  84 SE12      30.21S WCI   7
RIFLE, CO      CLOUDY    12   8  84 CALM      30.24S
MONTROSE, CO   CLOUDY    15   8  73 SE7       30.26R WCI   5
CORTEZ, CO     CLOUDY    12   8  84 NE6       30.17R WCI   3
COLORADO CITY    N/A     19  18  93 CALM      30.21S
PAGE, AZ       PTCLDY    28  12  51 CALM      30.20R
GRAND CANYON   PTCLDY     9   5  84 CALM      30.18R
KINGMAN, AZ    PTCLDY    29  11  47 SE3       30.16R
FLAGSTAFF, AZ  CLEAR     26   6  42 NE7       30.16R WCI  18

$$

REGIONAL REPORTS    NEVADA/IDAHO/WYOMING

CITY           SKY/WX    TMP DP  RH WIND       PRES   REMARKS
LAS VEGAS, NV  CLEAR     41  14  33 W5        30.16F
ELY, NY        CLEAR     13   6  74 S15       30.17F WCI  -3
ELKO, NV       CLOUDY    20  15  81 CALM      30.15F
POCATELLO, ID  CLOUDY    35  21  56 S12G24    30.05F WCI  27
BURLEY, ID     CLOUDY    34  19  54 SW13      30.07F WCI  25
FORT BRIDGER,    N/A     24  17  74 W15       30.10S WCI  11
EVANSTON, WY   CLOUDY    19  12  74 SW15      30.09F WCI   5
ROCK SPRINGS,  CLOUDY    20  14  77 SW15      30.06F WCI   6

$$




USA.gov is the U.S. government's official web portal to all federal, state and local government web resources and services.